,,,PA_Meas_PMT16A,,PR_Meas_QMR101_102,,RH_Meas_QMH101,,SR_Meas_QMS101,,TA_Meas_QMH101,,GenWind,,GenWind,
date,time,status,PA,status,PR,status,RH,status,SR,status,TA,status,DirAvg,status,SpdAvg,
2012-04-28, 00:00:04,VALID,1009.83,VALID,0,VALID,104,VALID,0,VALID,24.7464,VALID,58,VALID,0,
2012-04-28, 00:01:04,VALID,1009.85,VALID,0,VALID,104,VALID,0,VALID,24.7659,VALID,58,VALID,0,
2012-04-28, 00:02:04,VALID,1009.84,VALID,0,VALID,104,VALID,0,VALID,24.7445,VALID,58,VALID,0,
2012-04-28, 00:03:04,VALID,1009.83,VALID,0,VALID,104,VALID,0,VALID,24.7854,VALID,58,VALID,0,
2012-04-28, 00:04:04,VALID,1009.8,VALID,0,VALID,104,VALID,0,VALID,24.7854,VALID,58,VALID,0,
2012-04-28, 00:05:04,VALID,1009.77,VALID,0,VALID,104,VALID,0,VALID,24.7854,VALID,58,VALID,0,
2012-04-28, 00:06:04,VALID,1009.76,VALID,0,VALID,104,VALID,0,VALID,24.7854,VALID,58,VALID,0,
2012-04-28, 00:07:04,VALID,1009.74,VALID,0,VALID,104,VALID,0,VALID,24.764,VALID,58,VALID,0,
2012-04-28, 00:08:04,VALID,1009.72,VALID,0,VALID,104,VALID,0,VALID,24.7854,VALID,58,VALID,0,
2012-04-28, 00:09:04,VALID,1009.7,VALID,0,VALID,104,VALID,0,VALID,24.7659,VALID,58,VALID,0,
2012-04-28, 00:10:04,VALID,1009.71,VALID,0,VALID,104,VALID,0,VALID,24.8049,VALID,58,VALID,0,
2012-04-28, 00:11:04,VALID,1009.71,VALID,0,VALID,104,VALID,0,VALID,24.8049,VALID,58,VALID,0,
2012-04-28, 00:12:04,VALID,1009.67,VALID,0,VALID,104,VALID,0,VALID,24.7835,VALID,58,VALID,0,
2012-04-28, 00:13:04,VALID,1009.67,VALID,0,VALID,104,VALID,0,VALID,24.8049,VALID,58,VALID,0,
2012-04-28, 00:14:04,VALID,1009.64,VALID,0,VALID,104,VALID,0,VALID,24.8049,VALID,58,VALID,0,
2012-04-28, 00:15:04,VALID,1009.67,VALID,0,VALID,104,VALID,0,VALID,24.8244,VALID,58,VALID,0,
2012-04-28, 00:16:04,VALID,1009.66,VALID,0,VALID,104,VALID,0,VALID,24.8049,VALID,58,VALID,0,
2012-04-28, 00:17:04,VALID,1009.61,VALID,0,VALID,104,VALID,0,VALID,24.7835,VALID,58,VALID,0,
2012-04-28, 00:18:04,VALID,1009.62,VALID,0,VALID,104,VALID,0,VALID,24.7854,VALID,58,VALID,0,
2012-04-28, 00:19:04,VALID,1009.59,VALID,0,VALID,104,VALID,0,VALID,24.7854,VALID,58,VALID,0,
2012-04-28, 00:20:04,VALID,1009.6,VALID,0,VALID,104,VALID,0,VALID,24.7854,VALID,58,VALID,0,
2012-04-28, 00:21:04,VALID,1009.57,VALID,0,VALID,104,VALID,0,VALID,24.7854,VALID,58,VALID,0,
2012-04-28, 00:22:04,VALID,1009.53,VALID,0,VALID,104,VALID,0,VALID,24.7854,VALID,58,VALID,0,
2012-04-28, 00:23:04,VALID,1009.52,VALID,0,VALID,104,VALID,0,VALID,24.7659,VALID,58,VALID,0,
2012-04-28, 00:24:04,VALID,1009.51,VALID,0,VALID,104,VALID,0,VALID,24.7854,VALID,58,VALID,0,
2012-04-28, 00:25:04,VALID,1009.48,VALID,0,VALID,104,VALID,0,VALID,24.7872,VALID,58,VALID,0,
2012-04-28, 00:26:04,VALID,1009.47,VALID,0,VALID,104,VALID,0,VALID,24.7464,VALID,58,VALID,0,
2012-04-28, 00:27:04,VALID,1009.47,VALID,0,VALID,104,VALID,0,VALID,24.7464,VALID,58,VALID,0,
2012-04-28, 00:28:04,VALID,1009.45,VALID,0,VALID,104,VALID,0.112112,VALID,24.7659,VALID,58,VALID,0.381641,
2012-04-28, 00:29:04,VALID,1009.47,VALID,0,VALID,104,VALID,0,VALID,24.7659,VALID,58,VALID,0.698438,
2012-04-28, 00:30:04,VALID,1009.46,VALID,0,VALID,104,VALID,0,VALID,24.7854,VALID,58,VALID,0.552734,
2012-04-28, 00:31:04,VALID,1009.44,VALID,0,VALID,104,VALID,0,VALID,24.8049,VALID,58,VALID,0.510547,
2012-04-28, 00:32:04,VALID,1009.48,VALID,0,VALID,104,VALID,0,VALID,24.8244,VALID,60,VALID,0.498047,
2012-04-28, 00:33:04,VALID,1009.49,VALID,0,VALID,104,VALID,0,VALID,24.8049,VALID,60,VALID,0.383203,
2012-04-28, 00:34:04,VALID,1009.48,VALID,0,VALID,104,VALID,0,VALID,24.7835,VALID,60,VALID,0.186719,
2012-04-28, 00:35:04,VALID,1009.44,VALID,0,VALID,104,VALID,0,VALID,24.8049,VALID,60,VALID,0.909375,
2012-04-28, 00:36:04,VALID,1009.44,VALID,0,VALID,104,VALID,0,VALID,24.8244,VALID,62,VALID,0.390625,
2012-04-28, 00:37:04,VALID,1009.42,VALID,0,VALID,104,VALID,0,VALID,24.8262,VALID,69,VALID,0.56875,
2012-04-28, 00:38:04,VALID,1009.39,VALID,0,VALID,104,VALID,0,VALID,24.8244,VALID,76,VALID,0.603906,
2012-04-28, 00:39:04,VALID,1009.38,VALID,0,VALID,104,VALID,0,VALID,24.8244,VALID,70,VALID,0.70625,
2012-04-28, 00:40:04,VALID,1009.39,VALID,0,VALID,104,VALID,0,VALID,24.8438,VALID,70,VALID,0.410937,
2012-04-28, 00:41:04,VALID,1009.38,VALID,0,VALID,104,VALID,0,VALID,24.8438,VALID,70,VALID,0.256641,
2012-04-28, 00:42:04,VALID,1009.39,VALID,0,VALID,104,VALID,0,VALID,24.8438,VALID,63,VALID,0.389453,
2012-04-28, 00:43:04,VALID,1009.38,VALID,0,VALID,104,VALID,0,VALID,24.8244,VALID,63,VALID,0.448828,
2012-04-28, 00:44:04,VALID,1009.34,VALID,0,VALID,104,VALID,0,VALID,24.803,VALID,64,VALID,0.274219,
2012-04-28, 00:45:04,VALID,1009.33,VALID,0,VALID,104,VALID,0,VALID,24.8244,VALID,83,VALID,0.641406,
2012-04-28, 00:46:04,VALID,1009.32,VALID,0,VALID,104,VALID,0,VALID,24.8244,VALID,83,VALID,0.214062,
2012-04-28, 00:47:04,VALID,1009.29,VALID,0,VALID,104,VALID,0,VALID,24.8244,VALID,83,VALID,0.432813,
2012-04-28, 00:48:04,VALID,1009.26,VALID,0,VALID,104,VALID,0,VALID,24.8244,VALID,82,VALID,0.523438,
2012-04-28, 00:49:04,VALID,1009.26,VALID,0,VALID,104,VALID,0,VALID,24.8244,VALID,82,VALID,0.341797,
2012-04-28, 00:50:04,VALID,1009.22,VALID,0,VALID,104,VALID,0,VALID,24.8244,VALID,82,VALID,0.486719,
2012-04-28, 00:51:04,VALID,1009.21,VALID,0,VALID,104,VALID,0,VALID,24.8244,VALID,83,VALID,0.557031,
2012-04-28, 00:52:04,VALID,1009.21,VALID,0,VALID,104,VALID,0,VALID,24.8244,VALID,84,VALID,0.376563,
2012-04-28, 00:53:04,VALID,1009.19,VALID,0,VALID,104,VALID,0,VALID,24.8244,VALID,84,VALID,0.0929687,
2012-04-28, 00:54:04,VALID,1009.18,VALID,0,VALID,104,VALID,0,VALID,24.8244,VALID,84,VALID,0.250391,
2012-04-28, 00:55:04,VALID,1009.15,VALID,0,VALID,104,VALID,0,VALID,24.8244,VALID,83,VALID,0.433594,
2012-04-28, 00:56:04,VALID,1009.17,VALID,0,VALID,104,VALID,0,VALID,24.8244,VALID,83,VALID,0.233203,
2012-04-28, 00:57:04,VALID,1009.12,VALID,0,VALID,104,VALID,0,VALID,24.8244,VALID,83,VALID,0.148438,
2012-04-28, 00:58:04,VALID,1009.14,VALID,0,VALID,104,VALID,0,VALID,24.8244,VALID,83,VALID,0.294922,
2012-04-28, 00:59:04,VALID,1009.14,VALID,0,VALID,104,VALID,0,VALID,24.8244,VALID,63,VALID,0.694922,
2012-04-28, 01:00:04,VALID,1009.16,VALID,0,VALID,104,VALID,0,VALID,24.8244,VALID,58,VALID,0.269922,
2012-04-28, 01:01:04,VALID,1009.13,VALID,0,VALID,104,VALID,0,VALID,24.8438,VALID,58,VALID,0.0929687,
2012-04-28, 01:02:04,VALID,1009.14,VALID,0,VALID,104,VALID,0,VALID,24.8244,VALID,58,VALID,0.150781,
2012-04-28, 01:03:04,VALID,1009.14,VALID,0,VALID,104,VALID,0,VALID,24.8244,VALID,58,VALID,0.321484,
2012-04-28, 01:04:04,VALID,1009.12,VALID,0,VALID,104,VALID,0,VALID,24.8244,VALID,58,VALID,0.356641,
2012-04-28, 01:05:04,VALID,1009.13,VALID,0,VALID,104,VALID,0,VALID,24.8049,VALID,58,VALID,0.00820312,
2012-04-28, 01:06:04,VALID,1009.13,VALID,0,VALID,104,VALID,0,VALID,24.8244,VALID,58,VALID,0.455469,
2012-04-28, 01:07:04,VALID,1009.12,VALID,0,VALID,104,VALID,0,VALID,24.8244,VALID,58,VALID,0.333984,
2012-04-28, 01:08:04,VALID,1009.15,VALID,0,VALID,104,VALID,0,VALID,24.8244,VALID,58,VALID,0.00585938,
2012-04-28, 01:09:04,VALID,1009.15,VALID,0,VALID,104,VALID,0,VALID,24.8244,VALID,58,VALID,0,
2012-04-28, 01:10:04,VALID,1009.13,VALID,0,VALID,104,VALID,0,VALID,24.8049,VALID,58,VALID,0.411719,
2012-04-28, 01:11:04,VALID,1009.12,VALID,0,VALID,104,VALID,0,VALID,24.8049,VALID,58,VALID,0.0269531,
2012-04-28, 01:12:04,VALID,1009.11,VALID,0,VALID,104,VALID,0,VALID,24.7854,VALID,58,VALID,0.371484,
2012-04-28, 01:13:04,VALID,1009.06,VALID,0,VALID,104,VALID,0,VALID,24.8049,VALID,58,VALID,0.242188,
2012-04-28, 01:14:04,VALID,1009.03,VALID,0,VALID,104,VALID,0,VALID,24.7854,VALID,58,VALID,0.103516,
2012-04-28, 01:15:04,VALID,1009.02,VALID,0,VALID,104,VALID,0,VALID,24.7854,VALID,58,VALID,0.0886719,
2012-04-28, 01:16:04,VALID,1009.01,VALID,0,VALID,104,VALID,0,VALID,24.7854,VALID,58,VALID,0.435547,
2012-04-28, 01:17:04,VALID,1009.02,VALID,0,VALID,104,VALID,0,VALID,24.7854,VALID,58,VALID,0.171875,
2012-04-28, 01:18:04,VALID,1009,VALID,0,VALID,104,VALID,0,VALID,24.7854,VALID,58,VALID,0,
2012-04-28, 01:19:04,VALID,1009,VALID,0,VALID,104,VALID,0,VALID,24.7659,VALID,58,VALID,0,
2012-04-28, 01:20:04,VALID,1008.99,VALID,0,VALID,104,VALID,0,VALID,24.7659,VALID,58,VALID,0,
2012-04-28, 01:21:04,VALID,1008.98,VALID,0,VALID,104,VALID,0,VALID,24.7464,VALID,58,VALID,0.0296875,
2012-04-28, 01:22:04,VALID,1008.99,VALID,0,VALID,104,VALID,0,VALID,24.7269,VALID,58,VALID,0,
2012-04-28, 01:23:04,VALID,1008.99,VALID,0,VALID,104,VALID,0,VALID,24.7074,VALID,58,VALID,0,
2012-04-28, 01:24:04,VALID,1008.98,VALID,0,VALID,104,VALID,0,VALID,24.6879,VALID,58,VALID,0,
2012-04-28, 01:25:04,VALID,1008.97,VALID,0,VALID,104,VALID,0,VALID,24.6684,VALID,58,VALID,0,
2012-04-28, 01:26:04,VALID,1008.97,VALID,0,VALID,104,VALID,0,VALID,24.6489,VALID,58,VALID,0,
2012-04-28, 01:27:04,VALID,1008.96,VALID,0,VALID,104,VALID,0,VALID,24.6081,VALID,58,VALID,0.0578125,
2012-04-28, 01:28:04,VALID,1008.94,VALID,0,VALID,104,VALID,0,VALID,24.6294,VALID,58,VALID,0,
2012-04-28, 01:29:04,VALID,1008.92,VALID,0,VALID,104,VALID,0,VALID,24.6099,VALID,58,VALID,0.164844,
2012-04-28, 01:30:04,VALID,1008.93,VALID,0,VALID,104,VALID,0,VALID,24.5905,VALID,58,VALID,0,
2012-04-28, 01:31:04,VALID,1008.9,VALID,0,VALID,104,VALID,0,VALID,24.5728,VALID,58,VALID,0,
2012-04-28, 01:32:04,VALID,1008.88,VALID,0,VALID,104,VALID,0,VALID,24.532,VALID,58,VALID,0,
2012-04-28, 01:33:04,VALID,1008.87,VALID,0,VALID,104,VALID,0,VALID,24.532,VALID,58,VALID,0,
2012-04-28, 01:34:04,VALID,1008.87,VALID,0,VALID,104,VALID,0,VALID,24.5125,VALID,58,VALID,0,
2012-04-28, 01:35:04,VALID,1008.85,VALID,0,VALID,104,VALID,0,VALID,24.493,VALID,58,VALID,0,
2012-04-28, 01:36:04,VALID,1008.86,VALID,0,VALID,104,VALID,0,VALID,24.4735,VALID,58,VALID,0,
2012-04-28, 01:37:04,VALID,1008.86,VALID,0,VALID,104,VALID,0,VALID,24.4735,VALID,58,VALID,0,
2012-04-28, 01:38:04,VALID,1008.85,VALID,0,VALID,104,VALID,0,VALID,24.4735,VALID,58,VALID,0.242188,
2012-04-28, 01:39:04,VALID,1008.81,VALID,0,VALID,104,VALID,0,VALID,24.4735,VALID,58,VALID,0.0359375,
2012-04-28, 01:40:04,VALID,1008.78,VALID,0,VALID,104,VALID,0,VALID,24.454,VALID,58,VALID,0,
2012-04-28, 01:41:04,VALID,1008.76,VALID,0,VALID,104,VALID,0,VALID,24.4327,VALID,58,VALID,0,
2012-04-28, 01:42:04,VALID,1008.72,VALID,0,VALID,104,VALID,0,VALID,24.4345,VALID,58,VALID,0,
2012-04-28, 01:43:04,VALID,1008.73,VALID,0,VALID,104,VALID,0,VALID,24.415,VALID,58,VALID,0,
2012-04-28, 01:44:04,VALID,1008.7,VALID,0,VALID,104,VALID,0,VALID,24.3956,VALID,58,VALID,0,
2012-04-28, 01:45:04,VALID,1008.73,VALID,0,VALID,104,VALID,0,VALID,24.3956,VALID,58,VALID,0,
2012-04-28, 01:46:04,VALID,1008.72,VALID,0,VALID,104,VALID,0,VALID,24.3956,VALID,58,VALID,0,
2012-04-28, 01:47:04,VALID,1008.69,VALID,0,VALID,104,VALID,0,VALID,24.3761,VALID,58,VALID,0,
2012-04-28, 01:48:04,VALID,1008.64,VALID,0,VALID,104,VALID,0,VALID,24.3566,VALID,58,VALID,0,
2012-04-28, 01:49:04,VALID,1008.63,VALID,0,VALID,104,VALID,0,VALID,24.3371,VALID,58,VALID,0,
2012-04-28, 01:50:04,VALID,1008.6,VALID,0,VALID,104,VALID,0,VALID,24.3566,VALID,58,VALID,0,
2012-04-28, 01:51:04,VALID,1008.57,VALID,0,VALID,104,VALID,0,VALID,24.3371,VALID,58,VALID,0,
2012-04-28, 01:52:04,VALID,1008.54,VALID,0,VALID,104,VALID,0,VALID,24.3566,VALID,58,VALID,0,
2012-04-28, 01:53:04,VALID,1008.54,VALID,0,VALID,104,VALID,0,VALID,24.3779,VALID,58,VALID,0,
2012-04-28, 01:54:04,VALID,1008.5,VALID,0,VALID,104,VALID,0,VALID,24.3761,VALID,58,VALID,0,
2012-04-28, 01:55:04,VALID,1008.49,VALID,0,VALID,104,VALID,0,VALID,24.3761,VALID,58,VALID,0,
2012-04-28, 01:56:04,VALID,1008.48,VALID,0,VALID,104,VALID,0,VALID,24.3761,VALID,58,VALID,0,
2012-04-28, 01:57:04,VALID,1008.47,VALID,0,VALID,104,VALID,0.112112,VALID,24.3566,VALID,58,VALID,0,
2012-04-28, 01:58:04,VALID,1008.46,VALID,0,VALID,104,VALID,0,VALID,24.3761,VALID,58,VALID,0,
2012-04-28, 01:59:04,VALID,1008.43,VALID,0,VALID,104,VALID,0.112112,VALID,24.3956,VALID,58,VALID,0,
2012-04-28, 02:00:04,VALID,1008.41,VALID,0,VALID,104,VALID,0,VALID,24.3956,VALID,58,VALID,0,
2012-04-28, 02:01:04,VALID,1008.44,VALID,0,VALID,104,VALID,0,VALID,24.3547,VALID,58,VALID,0,
2012-04-28, 02:02:04,VALID,1008.43,VALID,0,VALID,104,VALID,0,VALID,24.3761,VALID,58,VALID,0,
2012-04-28, 02:03:04,VALID,1008.45,VALID,0,VALID,104,VALID,0,VALID,24.3761,VALID,58,VALID,0,
2012-04-28, 02:04:04,VALID,1008.45,VALID,0,VALID,104,VALID,0,VALID,24.3956,VALID,58,VALID,0,
2012-04-28, 02:05:04,VALID,1008.48,VALID,0,VALID,104,VALID,0,VALID,24.3956,VALID,58,VALID,0,
2012-04-28, 02:06:04,VALID,1008.45,VALID,0,VALID,104,VALID,0,VALID,24.415,VALID,58,VALID,0.230078,
2012-04-28, 02:07:04,VALID,1008.43,VALID,0,VALID,104,VALID,0.112112,VALID,24.3956,VALID,58,VALID,0.128125,
2012-04-28, 02:08:04,VALID,1008.41,VALID,0,VALID,104,VALID,0,VALID,24.3761,VALID,58,VALID,0,
2012-04-28, 02:09:04,VALID,1008.44,VALID,0,VALID,104,VALID,0,VALID,24.3761,VALID,58,VALID,0,
2012-04-28, 02:10:04,VALID,1008.46,VALID,0,VALID,104,VALID,0,VALID,24.3566,VALID,58,VALID,0,
2012-04-28, 02:11:04,VALID,1008.44,VALID,0,VALID,104,VALID,0,VALID,24.3566,VALID,58,VALID,0,
2012-04-28, 02:12:04,VALID,1008.46,VALID,0,VALID,104,VALID,0,VALID,24.3566,VALID,58,VALID,0,
2012-04-28, 02:13:04,VALID,1008.45,VALID,0,VALID,104,VALID,0,VALID,24.3566,VALID,58,VALID,0,
2012-04-28, 02:14:04,VALID,1008.47,VALID,0,VALID,104,VALID,0.112112,VALID,24.3371,VALID,58,VALID,0,
2012-04-28, 02:15:04,VALID,1008.44,VALID,0,VALID,104,VALID,0,VALID,24.3566,VALID,58,VALID,0,
2012-04-28, 02:16:04,VALID,1008.43,VALID,0,VALID,104,VALID,0,VALID,24.3176,VALID,58,VALID,0,
2012-04-28, 02:17:04,VALID,1008.43,VALID,0,VALID,104,VALID,0,VALID,24.3371,VALID,58,VALID,0,
2012-04-28, 02:18:04,VALID,1008.44,VALID,0,VALID,104,VALID,0,VALID,24.3371,VALID,58,VALID,0,
2012-04-28, 02:19:04,VALID,1008.43,VALID,0,VALID,104,VALID,0,VALID,24.3176,VALID,58,VALID,0,
2012-04-28, 02:20:04,VALID,1008.43,VALID,0,VALID,104,VALID,0,VALID,24.2981,VALID,58,VALID,0,
2012-04-28, 02:21:04,VALID,1008.41,VALID,0,VALID,104,VALID,0,VALID,24.2768,VALID,58,VALID,0.0257812,
2012-04-28, 02:22:04,VALID,1008.44,VALID,0,VALID,104,VALID,0.112112,VALID,24.2981,VALID,58,VALID,0.333594,
2012-04-28, 02:23:04,VALID,1008.44,VALID,0,VALID,104,VALID,0,VALID,24.3176,VALID,58,VALID,0.222266,
2012-04-28, 02:24:04,VALID,1008.44,VALID,0,VALID,104,VALID,0,VALID,24.3176,VALID,58,VALID,0.276172,
2012-04-28, 02:25:04,VALID,1008.45,VALID,0,VALID,104,VALID,0,VALID,24.3158,VALID,58,VALID,0.242578,
2012-04-28, 02:26:04,VALID,1008.45,VALID,0,VALID,104,VALID,0,VALID,24.3779,VALID,58,VALID,0.393359,
2012-04-28, 02:27:04,VALID,1008.46,VALID,0,VALID,104,VALID,0,VALID,24.3371,VALID,58,VALID,0.164063,
2012-04-28, 02:28:04,VALID,1008.44,VALID,0,VALID,104,VALID,0,VALID,24.3371,VALID,58,VALID,0.202344,
2012-04-28, 02:29:04,VALID,1008.44,VALID,0,VALID,104,VALID,0,VALID,24.3176,VALID,58,VALID,0.217187,
2012-04-28, 02:30:04,VALID,1008.41,VALID,0,VALID,104,VALID,0,VALID,24.2981,VALID,58,VALID,0.1625,
2012-04-28, 02:31:04,VALID,1008.39,VALID,0,VALID,104,VALID,0,VALID,24.2786,VALID,58,VALID,0.157031,
2012-04-28, 02:32:04,VALID,1008.41,VALID,0,VALID,104,VALID,0,VALID,24.2805,VALID,58,VALID,0.135937,
2012-04-28, 02:33:04,VALID,1008.39,VALID,0,VALID,104,VALID,0,VALID,24.2591,VALID,58,VALID,0,
2012-04-28, 02:34:04,VALID,1008.42,VALID,0,VALID,104,VALID,0,VALID,24.2591,VALID,58,VALID,0.00234375,
2012-04-28, 02:35:04,VALID,1008.38,VALID,0,VALID,104,VALID,0.112112,VALID,24.2573,VALID,58,VALID,0,
2012-04-28, 02:36:04,VALID,1008.38,VALID,0,VALID,104,VALID,0,VALID,24.2378,VALID,58,VALID,0,
2012-04-28, 02:37:04,VALID,1008.39,VALID,0,VALID,104,VALID,0.112112,VALID,24.2591,VALID,58,VALID,0.0195313,
2012-04-28, 02:38:04,VALID,1008.4,VALID,0,VALID,104,VALID,0,VALID,24.2378,VALID,58,VALID,0.0261719,
2012-04-28, 02:39:04,VALID,1008.41,VALID,0,VALID,104,VALID,0,VALID,24.2591,VALID,58,VALID,0.234766,
2012-04-28, 02:40:04,VALID,1008.42,VALID,0,VALID,104,VALID,0,VALID,24.2591,VALID,58,VALID,0.223438,
2012-04-28, 02:41:04,VALID,1008.42,VALID,0,VALID,104,VALID,0,VALID,24.3,VALID,58,VALID,0,
2012-04-28, 02:42:04,VALID,1008.45,VALID,0,VALID,104,VALID,0,VALID,24.2591,VALID,58,VALID,0,
2012-04-28, 02:43:04,VALID,1008.45,VALID,0,VALID,104,VALID,0,VALID,24.2396,VALID,58,VALID,0,
2012-04-28, 02:44:04,VALID,1008.44,VALID,0,VALID,104,VALID,0,VALID,24.2202,VALID,58,VALID,0,
2012-04-28, 02:45:04,VALID,1008.47,VALID,0,VALID,104,VALID,0,VALID,24.2202,VALID,58,VALID,0,
2012-04-28, 02:46:04,VALID,1008.44,VALID,0,VALID,104,VALID,0,VALID,24.2202,VALID,58,VALID,0,
2012-04-28, 02:47:04,VALID,1008.41,VALID,0,VALID,104,VALID,0,VALID,24.2007,VALID,58,VALID,0,
2012-04-28, 02:48:04,VALID,1008.45,VALID,0,VALID,104,VALID,0,VALID,24.1812,VALID,58,VALID,0,
2012-04-28, 02:49:04,VALID,1008.44,VALID,0,VALID,104,VALID,0,VALID,24.1812,VALID,58,VALID,0,
2012-04-28, 02:50:04,VALID,1008.42,VALID,0,VALID,104,VALID,0,VALID,24.1209,VALID,58,VALID,0,
2012-04-28, 02:51:04,VALID,1008.44,VALID,0,VALID,104,VALID,0,VALID,24.1209,VALID,58,VALID,0,
2012-04-28, 02:52:04,VALID,1008.46,VALID,0,VALID,104,VALID,0,VALID,24.1227,VALID,58,VALID,0,
2012-04-28, 02:53:04,VALID,1008.43,VALID,0,VALID,104,VALID,0,VALID,24.1014,VALID,58,VALID,0,
2012-04-28, 02:54:04,VALID,1008.42,VALID,0,VALID,104,VALID,0,VALID,24.1227,VALID,58,VALID,0,
2012-04-28, 02:55:04,VALID,1008.41,VALID,0,VALID,104,VALID,0.112112,VALID,24.1227,VALID,58,VALID,0,
2012-04-28, 02:56:04,VALID,1008.41,VALID,0,VALID,104,VALID,0,VALID,24.1032,VALID,58,VALID,0,
2012-04-28, 02:57:04,VALID,1008.43,VALID,0,VALID,104,VALID,0,VALID,24.0837,VALID,58,VALID,0,
2012-04-28, 02:58:04,VALID,1008.4,VALID,0,VALID,104,VALID,0,VALID,24.0837,VALID,58,VALID,0,
2012-04-28, 02:59:04,VALID,1008.4,VALID,0,VALID,104,VALID,0,VALID,24.0643,VALID,58,VALID,0,
2012-04-28, 03:00:04,VALID,1008.41,VALID,0,VALID,104,VALID,0.112112,VALID,24.0448,VALID,58,VALID,0,
2012-04-28, 03:01:04,VALID,1008.37,VALID,0,VALID,104,VALID,0.112112,VALID,24.0235,VALID,58,VALID,0,
2012-04-28, 03:02:04,VALID,1008.34,VALID,0,VALID,104,VALID,0,VALID,24.0643,VALID,58,VALID,0,
2012-04-28, 03:03:04,VALID,1008.34,VALID,0,VALID,104,VALID,0,VALID,24.1051,VALID,58,VALID,0,
2012-04-28, 03:04:04,VALID,1008.33,VALID,0,VALID,104,VALID,0,VALID,24.1032,VALID,58,VALID,0,
2012-04-28, 03:05:04,VALID,1008.32,VALID,0,VALID,104,VALID,0,VALID,24.1032,VALID,58,VALID,0,
2012-04-28, 03:06:04,VALID,1008.3,VALID,0,VALID,104,VALID,0,VALID,24.1227,VALID,58,VALID,0,
2012-04-28, 03:07:05,VALID,1008.3,VALID,0,VALID,104,VALID,0.112112,VALID,24.1227,VALID,58,VALID,0,
2012-04-28, 03:08:05,VALID,1008.26,VALID,0,VALID,104,VALID,0,VALID,24.1227,VALID,58,VALID,0,
2012-04-28, 03:09:05,VALID,1008.24,VALID,0,VALID,104,VALID,0,VALID,24.1422,VALID,58,VALID,0,
2012-04-28, 03:10:05,VALID,1008.23,VALID,0,VALID,104,VALID,0,VALID,24.1422,VALID,58,VALID,0,
2012-04-28, 03:11:05,VALID,1008.22,VALID,0,VALID,104,VALID,0,VALID,24.1422,VALID,58,VALID,0,
2012-04-28, 03:12:05,VALID,1008.2,VALID,0,VALID,104,VALID,0.112112,VALID,24.1227,VALID,58,VALID,0,
2012-04-28, 03:13:05,VALID,1008.21,VALID,0,VALID,104,VALID,0.112112,VALID,24.1227,VALID,58,VALID,0,
2012-04-28, 03:14:05,VALID,1008.19,VALID,0,VALID,104,VALID,0,VALID,24.1227,VALID,58,VALID,0,
2012-04-28, 03:15:05,VALID,1008.21,VALID,0,VALID,104,VALID,0,VALID,24.1032,VALID,58,VALID,0,
2012-04-28, 03:16:05,VALID,1008.19,VALID,0,VALID,104,VALID,0,VALID,24.1032,VALID,58,VALID,0,
2012-04-28, 03:17:05,VALID,1008.22,VALID,0,VALID,104,VALID,0,VALID,24.0837,VALID,58,VALID,0,
2012-04-28, 03:18:05,VALID,1008.19,VALID,0,VALID,104,VALID,0,VALID,24.0643,VALID,58,VALID,0,
2012-04-28, 03:19:05,VALID,1008.17,VALID,0,VALID,104,VALID,0,VALID,24.0643,VALID,58,VALID,0,
2012-04-28, 03:20:05,VALID,1008.18,VALID,0,VALID,104,VALID,0,VALID,24.0448,VALID,58,VALID,0,
2012-04-28, 03:21:05,VALID,1008.19,VALID,0,VALID,104,VALID,0,VALID,24.0253,VALID,58,VALID,0,
2012-04-28, 03:22:05,VALID,1008.16,VALID,0,VALID,104,VALID,0,VALID,24.0253,VALID,58,VALID,0,
2012-04-28, 03:23:05,VALID,1008.18,VALID,0,VALID,104,VALID,0,VALID,24.0058,VALID,58,VALID,0,
2012-04-28, 03:24:05,VALID,1008.15,VALID,0,VALID,104,VALID,0,VALID,24.0058,VALID,58,VALID,0,
2012-04-28, 03:25:05,VALID,1008.17,VALID,0,VALID,104,VALID,0,VALID,23.9863,VALID,58,VALID,0,
2012-04-28, 03:26:05,VALID,1008.16,VALID,0,VALID,104,VALID,0.112112,VALID,23.965,VALID,58,VALID,0,
2012-04-28, 03:27:05,VALID,1008.15,VALID,0,VALID,104,VALID,0,VALID,24.0058,VALID,58,VALID,0,
2012-04-28, 03:28:05,VALID,1008.14,VALID,0,VALID,104,VALID,0,VALID,24.0058,VALID,58,VALID,0,
2012-04-28, 03:29:05,VALID,1008.12,VALID,0,VALID,104,VALID,0,VALID,24.0253,VALID,58,VALID,0,
2012-04-28, 03:30:05,VALID,1008.12,VALID,0,VALID,104,VALID,0,VALID,24.0235,VALID,58,VALID,0,
2012-04-28, 03:31:05,VALID,1008.1,VALID,0,VALID,104,VALID,0,VALID,24.0448,VALID,58,VALID,0,
2012-04-28, 03:32:05,VALID,1008.09,VALID,0,VALID,104,VALID,0,VALID,24.0448,VALID,58,VALID,0.0804688,
2012-04-28, 03:33:05,VALID,1008.04,VALID,0,VALID,104,VALID,0,VALID,24.0448,VALID,58,VALID,0.288672,
2012-04-28, 03:34:05,VALID,1008.04,VALID,0,VALID,104,VALID,0,VALID,24.0643,VALID,58,VALID,0.315625,
2012-04-28, 03:35:05,VALID,1008.04,VALID,0,VALID,104,VALID,0,VALID,24.0643,VALID,58,VALID,0.226563,
2012-04-28, 03:36:05,VALID,1008.02,VALID,0,VALID,104,VALID,0,VALID,24.0448,VALID,58,VALID,0,
2012-04-28, 03:37:05,VALID,1008.02,VALID,0,VALID,104,VALID,0,VALID,24.0448,VALID,58,VALID,0.291797,
2012-04-28, 03:38:05,VALID,1007.99,VALID,0,VALID,104,VALID,0,VALID,24.0643,VALID,58,VALID,0.235156,
2012-04-28, 03:39:05,VALID,1007.99,VALID,0,VALID,104,VALID,0,VALID,24.0837,VALID,58,VALID,0.296484,
2012-04-28, 03:40:05,VALID,1008,VALID,0,VALID,104,VALID,0,VALID,24.0643,VALID,58,VALID,0.258203,
2012-04-28, 03:41:05,VALID,1008,VALID,0,VALID,104,VALID,0,VALID,24.0448,VALID,58,VALID,0.365234,
2012-04-28, 03:42:05,VALID,1008.03,VALID,0,VALID,104,VALID,0,VALID,24.0253,VALID,58,VALID,0.497656,
2012-04-28, 03:43:05,VALID,1008.02,VALID,0,VALID,104,VALID,0.112112,VALID,24.0235,VALID,58,VALID,0.377734,
2012-04-28, 03:44:05,VALID,1008.04,VALID,0,VALID,104,VALID,0,VALID,24.0448,VALID,58,VALID,0.485156,
2012-04-28, 03:45:05,VALID,1008.07,VALID,0,VALID,104,VALID,0,VALID,24.0837,VALID,58,VALID,0.394531,
2012-04-28, 03:46:05,VALID,1008.06,VALID,0,VALID,104,VALID,0,VALID,24.1032,VALID,58,VALID,0.434375,
2012-04-28, 03:47:05,VALID,1008.05,VALID,0,VALID,104,VALID,0,VALID,24.0643,VALID,58,VALID,0.154297,
2012-04-28, 03:48:05,VALID,1008.06,VALID,0,VALID,104,VALID,0,VALID,24.0837,VALID,58,VALID,0.264062,
2012-04-28, 03:49:05,VALID,1008.05,VALID,0,VALID,104,VALID,0,VALID,24.0837,VALID,58,VALID,0,
2012-04-28, 03:50:05,VALID,1008.05,VALID,0,VALID,104,VALID,0,VALID,24.0837,VALID,58,VALID,0.227344,
2012-04-28, 03:51:05,VALID,1008.04,VALID,0,VALID,104,VALID,0,VALID,24.0643,VALID,58,VALID,0,
2012-04-28, 03:52:05,VALID,1008.07,VALID,0,VALID,104,VALID,0,VALID,24.0643,VALID,58,VALID,0,
2012-04-28, 03:53:05,VALID,1008.1,VALID,0,VALID,104,VALID,0,VALID,24.0448,VALID,58,VALID,0.105078,
2012-04-28, 03:54:05,VALID,1008.07,VALID,0,VALID,104,VALID,0,VALID,24.0253,VALID,58,VALID,0.110156,
2012-04-28, 03:55:05,VALID,1008.07,VALID,0,VALID,104,VALID,0,VALID,24.0253,VALID,58,VALID,0.000390625,
2012-04-28, 03:56:05,VALID,1008.12,VALID,0,VALID,104,VALID,0,VALID,24.0448,VALID,58,VALID,0.398047,
2012-04-28, 03:57:05,VALID,1008.1,VALID,0,VALID,104,VALID,0,VALID,24.0448,VALID,58,VALID,0.194531,
2012-04-28, 03:58:05,VALID,1008.1,VALID,0,VALID,104,VALID,0,VALID,24.0448,VALID,58,VALID,0.251172,
2012-04-28, 03:59:05,VALID,1008.12,VALID,0,VALID,104,VALID,0,VALID,24.0253,VALID,58,VALID,0.165234,
2012-04-28, 04:00:05,VALID,1008.11,VALID,0,VALID,104,VALID,0,VALID,24.0253,VALID,58,VALID,0.185547,
2012-04-28, 04:01:05,VALID,1008.11,VALID,0,VALID,104,VALID,0,VALID,24.0058,VALID,58,VALID,0.133203,
2012-04-28, 04:02:05,VALID,1008.08,VALID,0,VALID,104,VALID,0,VALID,23.9863,VALID,58,VALID,0,
2012-04-28, 04:03:05,VALID,1008.1,VALID,0,VALID,104,VALID,0,VALID,23.9863,VALID,58,VALID,0,